| time (UTC) | temp F | wind direction | speed knots | gust knots | rain 1hr in | rain 24hr in | rain mn in | humidity % | barometer mb |
| 20260504000330 | 77 | 313 | 4.3 | 7.8 | 0.00 | 0.00 | 0.00 | 41 | 1009.8 |
| 20260503233344 | 77 | 327 | 3.5 | 8.7 | 0.00 | 0.00 | 0.00 | 42 | 1010.1 |
| 20260503230325 | 77 | 330 | 3.5 | 8.7 | 0.00 | 0.00 | 0.00 | 43 | 1010.6 |
| 20260503223324 | 76 | 339 | 4.3 | 11.3 | 0.00 | 0.00 | 0.00 | 43 | 1010.9 |
| 20260503220335 | 75 | 346 | 5.2 | 11.3 | 0.00 | 0.00 | 0.00 | 46 | 1011.3 |
| 20260503213348 | 75 | 322 | 4.3 | 10.4 | 0.00 | 0.00 | 0.00 | 42 | 1011.6 |
| 20260503210330 | 73 | 308 | 5.2 | 13.0 | 0.00 | 0.00 | 0.00 | 46 | 1011.9 |
| 20260503203335 | 73 | 310 | 7.0 | 12.2 | 0.00 | 0.00 | 0.00 | 46 | 1012.2 |
| 20260503200348 | 73 | 298 | 6.1 | 12.2 | 0.00 | 0.00 | 0.00 | 45 | 1012.5 |
| 20260503193330 | 73 | 17 | 3.5 | 9.6 | 0.00 | 0.00 | 0.00 | 47 | 1012.9 |
| 20260503190350 | 71 | 344 | 5.2 | 12.2 | 0.00 | 0.00 | 0.00 | 52 | 1013.2 |
| 20260503183330 | 70 | 2 | 3.5 | 8.7 | 0.00 | 0.00 | 0.00 | 54 | 1013.5 |
| 20260503180331 | 69 | 332 | 4.3 | 9.6 | 0.00 | 0.00 | 0.00 | 56 | 1013.7 |
| 20260503173324 | 68 | 280 | 1.7 | 5.2 | 0.00 | 0.00 | 0.00 | 60 | 1013.9 |
| 20260503170327 | 67 | 314 | 4.3 | 7.0 | 0.00 | 0.00 | 0.00 | 60 | 1013.9 |
| 20260503150448 | 63 | 19 | 1.7 | 5.2 | 0.00 | 0.00 | 0.00 | 63 | 1014.2 |
| 20260503130337 | 56 | 36 | 0.9 | 1.7 | 0.00 | 0.00 | 0.00 | 74 | 1013.9 |
| 20260503110328 | 59 | 26 | 2.6 | 4.3 | 0.00 | 0.00 | 0.00 | 65 | 1014.0 |
| 20260503090335 | 61 | 41 | 0.9 | 3.5 | 0.00 | 0.00 | 0.00 | 58 | 1014.2 |
| 20260503080328 | 62 | 76 | 0.9 | 2.6 | 0.00 | 0.00 | 0.00 | 57 | 1014.1 |
| 20260503070325 | 64 | 39 | 1.7 | 4.3 | 0.00 | 0.01 | 0.00 | 52 | 1014.0 |
| 20260503060341 | 65 | 43 | 1.7 | 4.3 | 0.00 | 0.01 | 0.00 | 51 | 1013.8 |
| 20260503053326 | 65 | 24 | 0.9 | 4.3 | 0.00 | 0.01 | 0.00 | 52 | 1013.9 |
| 20260503050327 | 66 | 31 | 0.9 | 3.5 | 0.00 | 0.01 | 0.00 | 51 | 1013.7 |
| 20260503043341 | 66 | 25 | 1.7 | 3.5 | 0.00 | 0.01 | 0.00 | 51 | 1013.6 |
| 20260503040327 | 67 | 50 | 2.6 | 7.8 | 0.00 | 0.01 | 0.00 | 50 | 1013.3 |
| 20260503033331 | 67 | 6 | 0.9 | 7.0 | 0.00 | 0.01 | 0.00 | 52 | 1012.8 |
| 20260503030325 | 68 | 346 | 2.6 | 8.7 | 0.00 | 0.01 | 0.00 | 51 | 1012.6 |
| 20260503023329 | 69 | 297 | 3.5 | 10.4 | 0.00 | 0.01 | 0.00 | 50 | 1012.5 |
| 20260503020339 | 70 | 353 | 5.2 | 11.3 | 0.00 | 0.01 | 0.00 | 50 | 1012.6 |
| 20260503013324 | 71 | 360 | 3.5 | 10.4 | 0.00 | 0.01 | 0.00 | 49 | 1012.7 |
| 20260503010352 | 71 | 344 | 4.3 | 9.6 | 0.00 | 0.01 | 0.00 | 50 | 1012.8 |
| 20260503003334 | 70 | 335 | 4.3 | 13.9 | 0.00 | 0.01 | 0.00 | 52 | 1012.9 |